Regional Weather Roundup
Issued by NWS

Home | Current Version | Previous Version | Graphics & Text | Print | Product List | Glossary On
Versions: 1 2 3 4 5 6 7 8 9 10 11 12 13 14 15 16 17 18 19 20 21 22 23 24 25 26 27 28 29 30 31 32 33 34 35 36 37 38 39 40 41 42 43 44 45 46 47 48 49 50
876
ASUS43 KLOT 040908
RWRIL

ILLINOIS REGIONAL WEATHER ROUNDUP
NATIONAL WEATHER SERVICE CHICAGO/ROMEOVILLE IL
300 AM CST SUN DEC 04 2016

NOTE: "FAIR" INDICATES FEW OR NO CLOUDS BELOW 12,000 FEET WITH NO
SIGNIFICANT WEATHER AND/OR OBSTRUCTIONS TO VISIBILITY.

* THESE STATIONS ARE NOT UNDER NWS QUALITY CONTROL. THEY ALSO MAY NOT
  REPORT WEATHER SUCH AS PRECIPITATION OR FOG.

ILZ001-002-007-009-015-016-024-041000-
NORTHWEST ILLINOIS

CITY           SKY/WX    TMP DP  RH WIND       PRES   REMARKS
MOLINE         CLOUDY    35  27  72 E9        30.17F WCI  28
STERLING*      CLOUDY    32  29  88 E6        30.20F WCI  26
SAVANNA*       CLOUDY    33  28  83 SE7       30.18F WCI  27
$$

ILZ003-004-008-010-011-017-018-041000-
NORTH CENTRAL ILLINOIS

CITY           SKY/WX    TMP DP  RH WIND       PRES   REMARKS
ROCKFORD       CLOUDY    33  27  78 S7        30.23F WCI  27
FREEPORT*      MOCLDY    31  28  86 SE6       30.20F WCI  26
ROCHELLE*      CLOUDY    31  29  90 S5        30.22F WCI  27
DE KALB*       CLOUDY    31  28  86 SE6       30.21F WCI  25
$$

ILZ005-006-012>014-019>023-041000-
NORTHEAST ILLINOIS

CITY           SKY/WX    TMP DP  RH WIND       PRES   REMARKS
CHICAGO-OHARE  CLOUDY    31  26  82 S3        30.23F
CHICAGO-MIDWAY CLOUDY    33  24  69 S3        30.24F
AURORA         CLOUDY    32  27  81 CALM      30.23F
LANSING*       CLOUDY    31  29  92 CALM      30.24F
JOLIET*        CLOUDY    32  29  88 SE3       30.23F
WAUKEGAN       CLOUDY    32  26  78 CALM      30.22S
DUPAGE AIRPORT CLOUDY    31  26  82 CALM      30.22F
KANKAKEE*      CLOUDY    32  28  87 CALM      30.24F
WHEELING       CLOUDY    32  24  72 CALM      30.24F
MORRIS*        CLOUDY    32  28  86 CALM      30.22F
ROMEOVILLE*    CLOUDY    30  30  99 SE3       30.23F
NORTHERLY ISL    N/A     33  24  70 SW6         N/A  WCI  28
$$

LMZ740>746-041000-
SOUTHERN LAKE MICHIGAN

STATION/POSITION SKY/WX   TEMP    WIND        PRES    VSBY  WAVE
                          AIR SEA DIR/SP/G                  HT/PER
                          (F)     (DEG/KT/KT) (MB)    (MI)  (FT/S)
SOUTHERN BUOY              36 48  220/  2/  4 1024.0F         0
HARRISON CRIB              35     210/  6/  8   N/A
BURNHAM HARBOR             33     190/  3/  6   N/A
CALUMET HARBOR             32     220/  3/  5 1023.6S
BURNS HARBOR               33     170/  3/  6 1024.7R
MICHIGAN CITY              32     130/  5/  6   N/A
$$

ILZ025>027-034>036-040-047-049-050-058-095>099-041000-
WEST-CENTRAL ILLINOIS

CITY           SKY/WX    TMP DP  RH WIND       PRES   REMARKS
QUINCY         CLOUDY    38  34  85 SE5       30.14S WCI  34
GALESBURG*     CLOUDY    32  29  88 E8        30.17F WCI  25
MACOMB*        CLOUDY    34  32  93 E7        30.19F WCI  28
JACKSONVILLE*  CLOUDY    35  32  88 SE9       30.16F WCI  28
PITTSFIELD*    LGT RAIN  37  35  90 E3        30.16S
$$

ILZ028>032-037-038-041>044-048-051>054-059>061-041000-
CENTRAL ILLINOIS

CITY           SKY/WX    TMP DP  RH WIND       PRES   REMARKS
PONTIAC        CLOUDY    32  32  98 E5        30.22F WCI  28
BLOOMINGTON    CLOUDY    31  28  89 E7        30.19F WCI  24
DECATUR        CLOUDY   N/A N/A N/A E7        30.20F
PEORIA         CLOUDY    34  28  79 E7        30.20F WCI  28
LACON*         CLOUDY    32  27  82 SE5       30.20F WCI  27
LINCOLN*       CLOUDY    34  31  87 E7        30.19F WCI  28
SPRINGFIELD    CLOUDY    36  31  82 E6        30.18F WCI  31
TAYLORVILLE    CLOUDY    34  31  88 E6        30.18F WCI  29
$$

ILZ033-039-045-046-055>057-062-063-041000-
EAST-CENTRAL ILLINOIS

CITY           SKY/WX    TMP DP  RH WIND       PRES   REMARKS
CHAMPAIGN      CLOUDY    33  28  81 E7        30.20F WCI  27
RANTOUL*       CLOUDY    33  31  90 E3        30.21F
MATTOON        CLOUDY    34  28  79 E6        30.18F WCI  29
PARIS*         CLOUDY    33  31  92 E3        30.22F
$$

ILZ079-100>102-041000-
SOUTHWEST ILLINOIS

CITY           SKY/WX    TMP DP  RH WIND       PRES   REMARKS
ALTON          CLOUDY    37  32  82 E7        30.16F WCI  32
BELLEVILLE     CLOUDY    39  36  89 NE2       30.15R
CAHOKIA*       LGT RAIN  39  33  79 E6        30.16R WCI  35
SPARTA*        DRIZZLE   38  33  83 E8        30.15F WCI  32
$$

ILZ064>066-069>071-074>076-080>082-084>086-088>090-092>094-041000-
SOUTH-CENTRAL ILLINOIS

CITY           SKY/WX    TMP DP  RH WIND       PRES   REMARKS
CARBONDALE     CLOUDY    39  35  86 E8        30.16F WCI  33
CAIRO*         CLOUDY    39  37  92 NE9       30.14F WCI  32
EFFINGHAM*     CLOUDY    36  32  85 NE5       30.20S WCI  32
MARION         CLOUDY    39  36  87 E5        30.16F
CENTRALIA*     CLOUDY    39  33  78 E7        30.17R WCI  34
SALEM*         CLOUDY    39  31  75 E6        30.17R WCI  34
METROPOLIS*    CLOUDY    39  37  91 CALM      30.15F
$$

ILZ067-068-072-073-078-083-087-091-041000-
SOUTHEAST ILLINOIS

CITY           SKY/WX    TMP DP  RH WIND       PRES   REMARKS
LAWRENCEVILLE  CLOUDY    37  31  78 E6        30.21F WCI  32
FLORA*         CLOUDY    38  32  78 E6        30.18F WCI  34
FAIRFIELD*     CLOUDY    38  32  78 E3        30.17F
HARRISBURG*    CLOUDY    39  35  86 E6        30.19S WCI  35
ROBINSON*      CLOUDY    35  31  85 E6        30.21F WCI  30
CARMI*         DRIZZLE   38  35  86 E6        30.18F WCI  34
$$

ABBREVIATIONS USED IN REMARKS
   TC - TEMPERATURE IN CELSIUS
  WCI - WIND CHILL INDEX
   HX - HEAT INDEX
  VSB - VISIBILITY
$$





USA.gov is the U.S. government's official web portal to all federal, state and local government web resources and services.